#timestamp,LO_Frequency,Hit 
1497870015.3,286046940.0,N
1497870035.1,286046937.6,N
1497870036.0,286046937.6,N
1497870055.8,286046935.9,N
1497870075.6,286046936.6,N
1497870095.5,286046934.7,N
1497870115.3,286046933.7,N
1497870135.1,286046931.2,N
1497870155.9,286046932.0,N
1497870175.7,286046929.6,N
1497870195.5,286046928.2,N
1497870215.4,286046927.0,N
1497870235.2,286046924.9,N
1497870255.0,286046926.0,N
1497870255.9,286046926.0,N
1497870275.8,286046921.6,N
1497870295.6,286046920.3,N
1497870315.4,286046918.7,N
1497870335.2,286046919.5,N
1497870355.1,286046917.9,N
1497870356.0,286046917.9,N
1497870375.8,286046915.2,N
1497870395.6,286046913.6,N
1497870415.5,286046912.3,N
1497870435.3,286046911.0,N
1497870455.1,286046911.2,N
1497870475.9,286046909.4,N
1497870495.7,286046907.7,N
1497870515.5,286046908.2,N
1497870535.4,286046905.5,N
1497870555.2,286046906.7,N
1497870575.0,286046904.8,N
1497870575.9,286046904.8,N
1497870595.8,286046902.7,N
1497870615.6,286046903.5,N
1497870635.4,286046901.8,N
1497870655.2,286046899.6,N
1497870675.1,286046897.9,N
1497870676.0,286046897.9,N
1497870695.8,286046896.7,N
1497870715.6,286046897.1,N
1497870735.5,286046894.5,N
1497870755.3,286046895.5,N
1497870775.1,286046895.1,N
1497870795.9,286046893.9,N
1497870815.7,286046891.4,N
1497870835.5,286046892.1,N
1497870855.4,286046889.5,N
1497870875.2,286046887.8,N
1497870895.0,286046889.2,N
1497870895.9,286046889.2,N
1497870915.8,286046888.4,N
1497870935.6,286046889.0,N
1497870955.4,286046887.3,N
1497870975.2,286046887.0,N
1497870995.1,286046885.3,N
1497870996.0,286046885.3,N
1497871015.8,286046884.1,N
1497871035.6,286046881.3,N
1497871055.5,286046881.8,N
1497871075.3,286046882.1,N
1497871095.1,286046882.7,N
1497871115.9,286046879.8,N
1497871135.7,286046880.8,N
1497871155.5,286046878.4,N
1497871175.4,286046877.0,N
1497871195.2,286046878.0,N
1497871215.0,286046875.2,N
1497871215.9,286046875.2,N
1497871235.8,286046876.4,N
1497871255.6,286046873.9,N
1497871275.4,286046873.8,N
1497871295.2,286046872.1,N
1497871315.1,286046872.6,N
1497871316.0,286046872.6,N
1497871335.8,286046873.0,N
1497871355.6,286046872.8,N
1497871375.5,286046871.0,N
1497871395.3,286046871.5,N
1497871415.1,286046868.9,N
1497871435.9,286046869.8,N
1497871455.7,286046867.4,N
1497871475.5,286046867.8,N
1497871495.3,286046865.4,N
1497871515.2,286046866.7,N
1497871535.0,286046866.6,N
1497871535.9,286046866.6,N
1497871555.8,286046863.9,Y
1497871575.6,286046914.5,N
1497871595.4,286046912.5,N
1497871615.2,286046912.3,N
1497871635.1,286046912.8,N
1497871636.0,286046912.8,N
1497871655.8,286046910.3,N
1497871675.6,286046913.2,N
1497871695.5,286046911.0,N
1497871715.3,286046911.5,N
1497871735.1,286046909.3,N
1497871755.9,286046908.6,N
1497871775.7,286046909.4,N
1497871795.5,286046907.3,N
1497871815.4,286046907.8,N
1497871835.2,286046906.5,N
1497871855.0,286046905.5,N
1497871855.9,286046905.5,N
1497871875.7,286046906.2,N
1497871895.6,286046903.7,N
1497871915.4,286046904.6,N
1497871935.2,286046904.2,N
1497871955.1,286046904.8,N
1497871956.0,286046904.8,N
1497871975.8,286046902.9,N
1497871995.6,286046902.9,N
1497872015.5,286046903.6,N
1497872035.3,286046901.0,N
1497872055.1,286046901.4,N
1497872075.9,286046899.0,N
1497872095.7,286046899.2,N
1497872115.5,286046900.0,N
1497872135.3,286046899.5,N
1497872155.2,286046897.5,N
1497872175.9,286046897.7,N
1497872195.7,286046898.6,N
1497872215.6,286046898.0,N
1497872235.4,286046898.5,N
1497872255.2,286046898.6,N
1497872275.1,286046896.7,N
1497872276.0,286046896.7,N
1497872295.8,286046896.7,N
1497872315.6,286046897.1,N
1497872335.5,286046897.1,N
1497872355.3,286046894.7,N
1497872375.1,286046894.9,N
1497872395.8,286046895.3,N
1497872415.7,286046892.6,N
1497872435.5,286046892.5,N
1497872455.3,286046893.3,N
1497872475.2,286046894.0,N
1497872495.9,286046891.6,N
1497872515.7,286046891.8,N
1497872535.6,286046892.0,N
1497872555.4,286046889.3,N
1497872575.2,286046889.4,N
1497872595.0,286046888.3,N
1497872596.0,286046888.3,N
1497872615.8,286046888.1,Y
1497872635.6,286046953.8,N
1497872655.5,286046953.9,N
1497872675.3,286046954.6,N
1497872695.1,286046952.2,N
1497872715.8,286046954.8,N
1497872735.7,286046952.5,N
1497872755.5,286046950.4,N
1497872775.3,286046950.8,N
1497872795.2,286046951.4,N
1497872815.9,286046951.1,N
1497872835.7,286046950.7,N
1497872855.6,286046951.4,N
1497872875.4,286046951.5,N
1497872895.2,286046948.6,N
1497872915.0,286046948.8,N
1497872916.0,286046948.8,N
1497872935.8,286046948.8,N
1497872955.6,286046946.9,N
1497872975.4,286046947.3,N
1497872995.3,286046947.2,N
1497873015.1,286046947.7,N
1497873035.8,286046945.4,N
1497873055.7,286046945.9,N
1497873075.5,286046946.4,N
1497873095.3,286046946.7,N
1497873115.2,286046944.0,N
1497873135.9,286046944.0,N
1497873155.7,286046944.9,N
1497873175.5,286046942.9,N
1497873195.4,286046943.2,N
1497873215.2,286046943.1,N
1497873235.0,286046940.5,N
1497873235.9,286046940.5,N
1497873255.8,286046941.0,N
1497873275.6,286046941.9,N
1497873295.4,286046938.9,N
1497873315.3,286046939.8,N
1497873335.1,286046940.2,N
1497873336.0,286046940.2,N
1497873355.8,286046937.7,N
1497873375.7,286046938.2,N
1497873395.5,286046938.3,N
1497873415.3,286046936.9,N
1497873435.2,286046936.9,N
1497873455.9,286046934.1,N
1497873475.7,286046934.2,N
1497873495.5,286046934.7,N
1497873515.4,286046932.5,N
1497873535.2,286046933.2,N
1497873555.0,286046933.1,N
1497873555.9,286046933.1,N
1497873575.8,286046933.6,N
1497873595.6,286046933.4,N
